Voltar ao catálogo

TANSEI 1

MS-T1

AtivoCiênciaLEO
NORAD 4952·PAYLOAD·🇯🇵 Japan

Lançado Feb 16, 1971 de Uchinoura Space Center

Loading…

Próximas Passagens

TLE

Source: Space-Track
1  4952U 71011A   26221.85770601  .00000068  00000-0  50001-5 0  9992
2  4952  29.6672  68.0195 0079416  56.2003  57.4841 13.58640294755835

Acompanhe TANSEI 1 em tempo real com AllMySat

Download on the App Store